Miscellaneous Local Product
Issued by NWS North Platte, NE

Home | Current Version | Previous Version | Graphics & Text | Print | Product List | Glossary Off
Versions: 1 2 3 4 5 6 7 8 9 10 11 12 13 14 15 16 17 18 19 20 21 22 23 24 25 26 27 28 29 30 31 32 33 34 35 36 37 38 39 40 41 42 43 44 45 46 47 48 49 50

000
AXUS43 KLBF 261610
MISLBF


WESTERN AND NORTH CENTRAL NEBRASKA HOURLY WEATHER ROUNDUP
NATIONAL WEATHER SERVICE NORTH PLATTE NE
1100 AM CDT TUE MAY 26 2015

***STATIONS NOT REPORTING VARIABLES SUCH AS SKY/WEATHER OR
PRESSURE ARE PROVIDED BY THE NEBRASKA DEPARTMENT OF
ROADS...RAWS...AND APRS NETWORKS...AND ARE NOT UNDER
NATIONAL WEATHER SERVICE QUALITY CONTROL***

...OBSERVATIONS IN AND NEAR THE EASTERN PANHANDLE OF NEBRASKA...

CITY           SKY/WX    TMP DP  RH WIND       PRES   REMARKS
PINE RIDGE     CLOUDY    59  51  75 SW3       30.00F
CHADRON        CLOUDY    57  52  83 SE5       30.01S
ALLIANCE       CLOUDY    56  51  84 NE7       30.01R
SIDNEY         CLOUDY    57  52  83 N5        30.04S
WHITECLAY        N/A     58  48  69 CALM        N/A
BIG SPRINGS      N/A     59  54  84 NW3         N/A
$$

...OBSERVATIONS IN NORTH CENTRAL NEBRASKA...

CITY           SKY/WX    TMP DP  RH WIND       PRES   REMARKS
VALENTINE      SUNNY     64  48  56 N13       29.96F
THEDFORD       PTSUNNY   62  49  62 N13G18    29.97S
AINSWORTH      PTSUNNY   62  50  66 N16G24    29.95S
O`NEILL        CLOUDY    59  52  76 N17G23    29.90S
ORD            CLOUDY    57  50  77 N17       29.89R
BROKEN BOW     CLOUDY    61  50  67 N21       29.92S
BROWNLEE         N/A     64  44  46 N16         N/A
VALENTINE NWR    N/A     60  50  69 N13G21      N/A
SPRINGVIEW       N/A     61  53  74 NW6G16      N/A
HALSEY           N/A     60  49  68 N9G17       N/A
BREWSTER         N/A     66  51  58 N17         N/A
ROSE             N/A     63  54  70 NE14        N/A
NEWPORT          N/A     65  50  57 E8          N/A
SARGENT          N/A     59  51  74 N3G13       N/A
COMSTOCK         N/A     63  55  75 E10         N/A
EWING            N/A     58  54  87 N10         N/A
$$

...OBSERVATIONS IN SOUTHWEST NEBRASKA AND FAR NORTHEAST COLORADO...

CITY           SKY/WX    TMP DP  RH WIND       PRES   REMARKS
WRAY           PTSUNNY   63  51  65 NW7       30.02R
IMPERIAL       CLOUDY    59  52  77 NW7       30.01R
OGALLALA       CLOUDY    60  53  78 N8        30.01R
NORTH PLATTE   PTSUNNY   61  49  64 NW12      29.99R
MCCOOK         PTSUNNY   64  51  62 NW10      29.97S
LEXINGTON      CLOUDY    61  53  74 NW12      29.95R
PAXTON           N/A     58  51  79 N5          N/A
GOTHENBURG       N/A     59  46  61 NW10        N/A
CALLAWAY         N/A     58  53  82 N12         N/A
$$

...NORTH PLATTE AREA...

CITY           SKY/WX    TMP DP  RH WIND       PRES   REMARKS
AIRPORT        PTSUNNY   61  49  64 NW12      29.99R
DOWNTOWN         N/A     60  48  64 N5G13       N/A
$$

...SOME WEATHER OBSERVATIONS FROM AROUND THE REGION...

CITY           SKY/WX    TMP DP  RH WIND       PRES   REMARKS
DENVER         PTSUNNY   59  44  57 S5        30.06F
LARAMIE        MOSUNNY   54  38  54 VRB5      30.09S
CHEYENNE       CLOUDY    57  41  55 S5        30.07S
SCOTTSBLUFF    CLOUDY    59  52  77 CALM      30.02S
RAPID CITY     MOSUNNY   59  52  77 SW9       29.99S
PIERRE         SUNNY     67  51  56 NW13      29.91F
WINNER         PTSUNNY   65  52  62 N13       29.93F
SIOUX FALLS    CLOUDY    57  52  83 N14       29.83S
OMAHA          CLOUDY    67  59  75 W5        29.78S
GRAND ISLAND   CLOUDY    60  54  80 N13       29.89R
KANSAS CITY    PTSUNNY   70  62  76 S21G26    29.84S
WICHITA        MOSUNNY   73  59  61 SW13      29.93S
HAYS           MOSUNNY   70  54  56 W14       29.95S
LIBERAL        MOSUNNY   66  54  63 CALM      30.02S
GOODLAND       SUNNY     64  51  62 N13       30.01S
$$



USA.gov is the U.S. government's official web portal to all federal, state and local government web resources and services.